Regional Weather Roundup
Issued by NWS

Home | Current Version | Previous Version | Text Only | Print | Product List | Glossary Off
Versions: 1 2 3 4 5 6 7 8 9 10 11 12 13 14 15 16 17 18 19 20 21 22 23 24 25 26 27 28 29 30 31 32 33 34 35 36 37 38 39 40 41 42 43 44 45 46 47 48 49 50

000
ASUS43 KFSD 210702
RWRSD

WEATHER ROUNDUP FOR SOUTH DAKOTA
NATIONAL WEATHER SERVICE SIOUX FALLS SD
100 AM CST WED FEB 21 2018

NOTE: "FAIR" INDICATES FEW OR NO CLOUDS BELOW 12,000 FEET WITH NO
SIGNIFICANT WEATHER AND/OR OBSTRUCTIONS TO VISIBILITY.


SDZ001>005-009-010-012>017-210800-
NORTHWEST AND NORTH CENTRAL SOUTH DAKOTA

CITY           SKY/WX    TMP DP  RH WIND       PRES   REMARKS
BUFFALO          N/A     -4 -12  68 CALM      30.15R
FAITH            N/A    -11 -15  82 S12       30.31R WCI -31
MOBRIDGE       CLEAR     -5 -13  68 W6        30.33R WCI -18
$$

SDZ012>016-024>037-041>051-057-063-072>074-210800-
SOUTHWEST AND SOUTH CENTRAL SOUTH DAKOTA

CITY           SKY/WX    TMP DP  RH WIND       PRES   REMARKS
RAPID CTY ARPT CLEAR     -9 -14  78 E3        30.26R
PIERRE         PTCLDY    -6 -11  79 SW10      30.40  WCI -24
CUSTER         PTCLDY    -5 -13  68 W5        30.06R WCI -16
ELLSWORTH AFB  PTCLDY    -3  -8  79 CALM      30.25R
PHILIP         CLEAR    -19 -21  90 W7        30.39R WCI -36
PINE RIDGE     CLEAR     -8 -14  74 W5        30.29R WCI -19
SPEARFISH        N/A      3 -13  47 W6        30.18R WCI  -8
WINNER         FAIR      -1 -11  62 SW8       30.42R WCI -15
$$

SDZ004>011-016>023-039-040-210800-
NORTHEAST SOUTH DAKOTA

CITY           SKY/WX    TMP DP  RH WIND       PRES   REMARKS
ABERDEEN       CLEAR     -9 -14  78 SW9       30.40R WCI -26
WATERTOWN      CLEAR     -5  -9  83 SW6       30.35R WCI -18
BROOKINGS      CLOUDY     0  -6  76 W12       30.40R WCI -17
SISSETON         N/A      0  -6  76 W6        30.37R WCI -12
$$

SDZ017-020-022-023-036>040-048>070-210800-
SOUTHEAST SOUTH DAKOTA

CITY           SKY/WX    TMP DP  RH WIND       PRES   REMARKS
SIOUX FALLS    CLOUDY    -1  -6  79 W5        30.43R WCI -11
HURON          CLEAR     -3  -8  79 W7        30.45R WCI -16
CHAMBERLAIN    CLEAR     -3  -8  77 SW3       30.44R
MITCHELL       CLEAR      1  -5  75 W9        30.47R WCI -14
YANKTON        CLOUDY     2  -4  76 W8        30.49R WCI -12
$$

ABBREVIATIONS USED IN REMARKS
   TC - TEMPERATURE IN CELSIUS
  WCI - WIND CHILL INDEX
   HX - HEAT INDEX
  VSB - VISIBILITY





USA.gov is the U.S. government's official web portal to all federal, state and local government web resources and services.